QPF
0.09 0.12 0.12 0.09 0.08 0.07 0.07 0.06 0.06 0.06 0.05 0.04 0.03 0.03 0.02 0.01 0.01 0.00 0.00 0.00 0.00 0.00 0.00 0.00 0.00 0.00 0.00 0.00 0.00 0.00 0.00 0.00 0.01 0.01 0.01 0.01 0.01 0.01 0.01 0.01 0.00 0.00 0.00
0.05 0.06 0.07 0.05 0.05 0.06 0.06 0.06 0.04 0.03 0.03 0.03 0.03 0.03 0.03 0.02 0.01 0.01 0.01 0.01 0.01 0.00 0.00 0.00 0.00 0.00 0.00 0.00 0.00 0.00 0.00 0.00 0.00 0.00 0.01 0.01 0.01 0.01 0.00 0.00 0.00 0.00 0.00
0.04 0.04 0.04 0.03 0.03 0.03 0.04 0.04 0.03 0.02 0.02 0.02 0.01 0.01 0.01 0.01 0.01 0.01 0.01 0.00 0.00 0.00 0.00 0.00 0.00 0.00 0.00 0.00 0.00 0.00 0.00 0.00 0.00 0.00 0.00 0.00 0.00 0.00 0.00 0.00 0.00 0.00 0.00
0.04 0.03 0.03 0.03 0.02 0.02 0.02 0.02 0.02 0.01 0.01 0.01 0.01 0.01 0.00 0.00 0.00 0.00 0.00 0.00 0.00 0.00 0.00 0.00 0.00 0.00 0.00 0.00 0.00 0.00 0.00 0.00 0.00 0.00 0.00 0.00 0.00 0.00 0.00 0.00 0.00 0.00 0.00
0.03 0.03 0.02 0.02 0.02 0.02 0.01 0.01 0.01 0.01 0.00 0.00 0.00 0.00 0.00 0.00 0.00 0.01 0.01 0.01 0.01 0.01 0.01 0.00 0.00 0.00 0.00 0.00 0.00 0.00 0.00 0.00 0.00 0.00 0.00 0.00 0.00 0.00 0.00 0.00 0.00 0.00 0.00
0.02 0.02 0.02 0.02 0.01 0.01 0.01 0.00 0.00 0.00 0.00 0.00 0.00 0.00 0.00 0.00 0.00 0.00 0.00 0.01 0.01 0.01 0.01 0.01 0.00 0.00 0.00 0.00 0.00 0.00 0.00 0.00 0.00 0.00 0.00 0.00 0.00 0.00 0.00 0.00 0.00 0.00 0.00
0.01 0.01 0.01 0.01 0.01 0.01 0.00 0.00 0.00 0.00 0.00 0.01 0.01 0.00 0.00 0.00 0.00 0.00 0.00 0.00 0.00 0.00 0.00 0.00 0.00 0.00 0.00 0.00 0.00 0.00 0.00 0.00 0.00 0.00 0.00 0.00 0.00 0.00 0.00 0.00 0.00 0.00 0.00
0.01 0.01 0.01 0.01 0.01 0.01 0.00 0.00 0.00 0.00 0.00 0.00 0.00 0.00 0.00 0.00 0.00 0.00 0.00 0.00 0.00 0.00 0.00 0.00 0.00 0.00 0.00 0.00 0.00 0.00 0.00 0.00 0.00 0.00 0.00 0.00 0.00 0.00 0.00 0.00 0.00 0.00 0.00
0.02 0.01 0.01 0.01 0.01 0.00 0.00 0.00 0.00 0.00 0.00 0.00 0.00 0.00 0.00 0.00 0.00 0.00 0.00 0.00 0.00 0.00 0.00 0.00 0.00 0.00 0.00 0.00 0.00 0.00 0.00 0.00 0.00 0.00 0.00 0.00 0.00 0.01 0.01 0.00 0.00 0.00 0.00
0.03 0.01 0.01 0.01 0.00 0.00 0.00 0.00 0.00 0.00 0.00 0.00 0.00 0.00 0.00 0.00 0.00 0.00 0.00 0.00 0.00 0.00 0.00 0.00 0.00 0.00 0.00 0.00 0.00 0.00 0.00 0.00 0.00 0.00 0.00 0.00 0.00 0.00 0.00 0.00 0.00 0.00 0.00
0.02 0.01 0.01 0.01 0.00 0.00 0.00 0.00 0.00 0.00 0.00 0.00 0.00 0.00 0.00 0.00 0.00 0.00 0.00 0.00 0.00 0.00 0.00 0.00 0.00 0.00 0.00 0.00 0.00 0.00 0.00 0.00 0.00 0.00 0.00 0.00 0.00 0.00 0.00 0.00 0.00 0.00 0.00
0.01 0.01 0.01 0.01 0.00 0.00 0.00 0.00 0.00 0.00 0.00 0.00 0.00 0.00 0.00 0.00 0.00 0.00 0.00 0.00 0.00 0.00 0.00 0.00 0.00 0.00 0.00 0.00 0.00 0.00 0.00 0.00 0.00 0.00 0.00 0.00 0.00 0.00 0.00 0.00 0.00 0.00 0.00
0.00 0.00 0.00 0.00 0.00 0.00 0.00 0.00 0.00 0.00 0.00 0.00 0.00 0.00 0.00 0.00 0.00 0.00 0.00 0.00 0.00 0.00 0.00 0.00 0.00 0.00 0.01 0.01 0.01 0.00 0.00 0.00 0.00 0.00 0.00 0.00 0.00 0.00 0.00 0.00 0.00 0.00 0.00
0.00 0.00 0.00 0.00 0.00 0.00 0.00 0.00 0.00 0.00 0.00 0.00 0.00 0.00 0.00 0.00 0.00 0.00 0.00 0.00 0.00 0.00 0.01 0.01 0.01 0.01 0.01 0.01 0.00 0.00 0.00 0.00 0.00 0.00 0.00 0.00 0.00 0.00 0.00 0.00 0.00 0.00 0.00
0.00 0.00 0.00 0.00 0.00 0.00 0.00 0.00 0.00 0.00 0.00 0.00 0.00 0.00 0.00 0.00 0.00 0.00 0.00 0.00 0.00 0.00 0.00 0.01 0.02 0.01 0.01 0.00 0.00 0.00 0.00 0.00 0.00 0.00 0.00 0.00 0.00 0.00 0.00 0.00 0.00 0.00 0.00
0.00 0.00 0.00 0.00 0.00 0.00 0.00 0.00 0.00 0.00 0.00 0.00 0.00 0.00 0.00 0.00 0.00 0.00 0.00 0.00 0.00 0.00 0.00 0.00 0.00 0.00 0.00 0.00 0.00 0.00 0.00 0.00 0.00 0.00 0.00 0.00 0.00 0.00 0.00 0.00 0.00 0.00 0.00
0.00 0.00 0.00 0.00 0.00 0.00 0.00 0.00 0.00 0.00 0.00 0.00 0.00 0.00 0.00 0.00 0.00 0.00 0.00 0.00 0.00 0.00 0.00 0.00 0.00 0.00 0.00 0.00 0.00 0.00 0.00 0.00 0.00 0.00 0.00 0.00 0.00 0.00 0.00 0.00 0.00 0.00 0.00
0.00 0.00 0.00 0.00 0.00 0.00 0.00 0.00 0.00 0.00 0.00 0.00 0.00 0.00 0.00 0.00 0.00 0.00 0.00 0.00 0.00 0.00 0.00 0.00 0.00 0.00 0.00 0.00 0.00 0.00 0.00 0.00 0.00 0.00 0.00 0.00 0.00 0.00 0.00 0.00 0.00 0.00 0.00
0.00 0.00 0.00 0.00 0.00 0.00 0.00 0.00 0.00 0.00 0.00 0.00 0.00 0.00 0.00 0.00 0.00 0.00 0.00 0.00 0.00 0.00 0.00 0.00 0.00 0.00 0.00 0.00 0.00 0.00 0.00 0.00 0.00 0.00 0.00 0.00 0.00 0.00 0.00 0.00 0.00 0.00 0.00
0.00 0.00 0.00 0.00 0.00 0.00 0.00 0.00 0.00 0.00 0.00 0.00 0.00 0.00 0.00 0.00 0.00 0.00 0.00 0.00 0.00 0.00 0.00 0.00 0.00 0.00 0.00 0.00 0.00 0.00 0.00 0.00 0.00 0.00 0.00 0.00 0.00 0.00 0.00 0.00 0.00 0.00 0.00
0.00 0.00 0.00 0.00 0.00 0.00 0.00 0.00 0.00 0.00 0.00 0.00 0.00 0.00 0.00 0.00 0.00 0.00 0.00 0.00 0.00 0.00 0.00 0.00 0.00 0.00 0.00 0.00 0.00 0.00 0.00 0.00 0.00 0.00 0.00 0.00 0.00 0.00 0.00 0.00 0.00 0.00 0.00
0.00 0.00 0.00 0.00 0.00 0.00 0.00 0.00 0.00 0.00 0.00 0.00 0.00 0.00 0.00 0.00 0.00 0.00 0.00 0.00 0.00 0.00 0.00 0.00 0.00 0.00 0.00 0.00 0.00 0.00 0.00 0.00 0.00 0.00 0.00 0.00 0.00 0.00 0.00 0.00 0.00 0.00 0.00
0.00 0.00 0.00 0.00 0.00 0.00 0.00 0.00 0.00 0.00 0.00 0.00 0.00 0.00 0.00 0.00 0.00 0.00 0.00 0.00 0.00 0.00 0.00 0.00 0.00 0.00 0.00 0.00 0.00 0.00 0.00 0.00 0.00 0.00 0.00 0.00 0.00 0.00 0.00 0.00 0.00 0.00 0.00
0.00 0.00 0.00 0.00 0.00 0.00 0.00 0.00 0.00 0.00 0.00 0.00 0.00 0.00 0.00 0.00 0.00 0.00 0.00 0.00 0.00 0.00 0.00 0.00 0.00 0.00 0.00 0.00 0.00 0.00 0.00 0.00 0.00 0.00 0.00 0.00 0.00 0.00 0.00 0.00 0.00 0.00 0.00
0.00 0.00 0.00 0.00 0.00 0.00 0.00 0.00 0.00 0.00 0.00 0.00 0.00 0.00 0.00 0.00 0.00 0.00 0.00 0.00 0.00 0.00 0.00 0.00 0.00 0.00 0.00 0.00 0.00 0.00 0.00 0.00 0.00 0.00 0.00 0.00 0.00 0.00 0.00 0.00 0.00 0.00 0.00
0.00 0.00 0.00 0.00 0.00 0.00 0.00 0.00 0.00 0.00 0.00 0.00 0.00 0.00 0.00 0.00 0.00 0.00 0.00 0.00 0.00 0.00 0.00 0.00 0.00 0.00 0.00 0.00 0.00 0.00 0.00 0.00 0.00 0.00 0.00 0.00 0.00 0.00 0.00 0.00 0.00 0.00 0.00
MSLP
1020.28 1020.61 1021.04 1021.55 1022.11 1022.69 1023.27 1023.81 1024.29 1024.69 1024.99 1025.19 1025.29 1025.30 1025.25 1025.17 1025.10 1025.06 1025.09 1025.18 1025.33 1025.52 1025.73 1025.92 1026.04 1026.09 1026.05 1025.92 1025.71 1025.45 1025.16 1024.85 1024.56 1024.26 1023.96 1023.64 1023.28 1022.88 1022.42 1021.93 1021.40 1020.87 1020.36
1021.72 1022.03 1022.40 1022.83 1023.28 1023.76 1024.22 1024.66 1025.05 1025.37 1025.61 1025.76 1025.81 1025.79 1025.71 1025.60 1025.49 1025.42 1025.39 1025.44 1025.54 1025.69 1025.85 1026.00 1026.11 1026.15 1026.11 1025.99 1025.81 1025.57 1025.31 1025.03 1024.75 1024.46 1024.16 1023.83 1023.46 1023.04 1022.56 1022.04 1021.49 1020.92 1020.38
1023.01 1023.29 1023.61 1023.95 1024.31 1024.68 1025.04 1025.38 1025.69 1025.95 1026.14 1026.25 1026.29 1026.25 1026.15 1026.02 1025.88 1025.77 1025.70 1025.69 1025.73 1025.82 1025.93 1026.03 1026.09 1026.11 1026.05 1025.93 1025.76 1025.54 1025.30 1025.04 1024.78 1024.52 1024.24 1023.92 1023.56 1023.15 1022.68 1022.16 1021.60 1021.04 1020.48
1024.04 1024.30 1024.57 1024.84 1025.11 1025.38 1025.65 1025.92 1026.17 1026.38 1026.54 1026.65 1026.68 1026.64 1026.55 1026.42 1026.28 1026.14 1026.03 1025.97 1025.96 1025.97 1026.01 1026.05 1026.06 1026.02 1025.94 1025.80 1025.61 1025.39 1025.16 1024.92 1024.67 1024.43 1024.17 1023.88 1023.55 1023.17 1022.73 1022.24 1021.70 1021.15 1020.60
1024.79 1025.02 1025.24 1025.44 1025.64 1025.84 1026.05 1026.26 1026.46 1026.65 1026.80 1026.92 1026.97 1026.96 1026.89 1026.78 1026.65 1026.50 1026.38 1026.28 1026.21 1026.17 1026.14 1026.11 1026.05 1025.96 1025.82 1025.63 1025.41 1025.17 1024.92 1024.68 1024.44 1024.20 1023.97 1023.71 1023.41 1023.07 1022.68 1022.23 1021.73 1021.21 1020.68
1025.25 1025.46 1025.64 1025.80 1025.94 1026.08 1026.24 1026.41 1026.59 1026.77 1026.94 1027.07 1027.15 1027.18 1027.15 1027.08 1026.96 1026.83 1026.70 1026.58 1026.48 1026.39 1026.30 1026.20 1026.08 1025.92 1025.72 1025.48 1025.21 1024.93 1024.65 1024.38 1024.13 1023.89 1023.66 1023.43 1023.16 1022.86 1022.51 1022.11 1021.66 1021.18 1020.68
1025.51 1025.69 1025.84 1025.95 1026.06 1026.17 1026.30 1026.45 1026.62 1026.80 1026.98 1027.14 1027.25 1027.32 1027.33 1027.29 1027.21 1027.10 1026.97 1026.85 1026.72 1026.60 1026.47 1026.32 1026.14 1025.92 1025.66 1025.36 1025.04 1024.70 1024.38 1024.07 1023.79 1023.54 1023.31 1023.08 1022.84 1022.57 1022.26 1021.90 1021.50 1021.05 1020.58
1025.64 1025.80 1025.92 1026.02 1026.11 1026.20 1026.32 1026.46 1026.63 1026.82 1027.00 1027.18 1027.32 1027.41 1027.44 1027.43 1027.37 1027.28 1027.17 1027.04 1026.91 1026.76 1026.61 1026.42 1026.20 1025.93 1025.62 1025.27 1024.90 1024.52 1024.15 1023.80 1023.48 1023.20 1022.96 1022.72 1022.49 1022.24 1021.96 1021.63 1021.27 1020.86 1020.42
1025.76 1025.91 1026.02 1026.11 1026.19 1026.28 1026.40 1026.54 1026.71 1026.90 1027.09 1027.26 1027.40 1027.50 1027.54 1027.53 1027.48 1027.40 1027.28 1027.16 1027.02 1026.87 1026.69 1026.48 1026.24 1025.94 1025.60 1025.22 1024.81 1024.40 1023.99 1023.60 1023.25 1022.95 1022.67 1022.43 1022.19 1021.94 1021.67 1021.37 1021.03 1020.65 1020.24
1025.93 1026.07 1026.19 1026.28 1026.38 1026.48 1026.60 1026.75 1026.92 1027.10 1027.28 1027.44 1027.56 1027.64 1027.66 1027.64 1027.58 1027.48 1027.36 1027.22 1027.08 1026.91 1026.73 1026.51 1026.26 1025.95 1025.60 1025.21 1024.78 1024.35 1023.92 1023.51 1023.14 1022.80 1022.50 1022.23 1021.97 1021.72 1021.44 1021.15 1020.82 1020.47 1020.09
1026.19 1026.33 1026.45 1026.57 1026.68 1026.80 1026.94 1027.10 1027.27 1027.44 1027.60 1027.73 1027.82 1027.86 1027.85 1027.79 1027.70 1027.57 1027.43 1027.28 1027.12 1026.94 1026.75 1026.53 1026.27 1025.97 1025.63 1025.24 1024.82 1024.39 1023.96 1023.54 1023.15 1022.79 1022.47 1022.17 1021.88 1021.60 1021.31 1021.00 1020.68 1020.34 1019.99
1026.50 1026.65 1026.79 1026.93 1027.06 1027.21 1027.37 1027.54 1027.71 1027.86 1028.00 1028.10 1028.15 1028.15 1028.09 1028.00 1027.86 1027.70 1027.53 1027.35 1027.17 1026.98 1026.78 1026.56 1026.31 1026.02 1025.69 1025.32 1024.93 1024.51 1024.10 1023.68 1023.29 1022.91 1022.56 1022.23 1021.91 1021.59 1021.27 1020.94 1020.61 1020.27 1019.94
1026.83 1026.99 1027.14 1027.29 1027.46 1027.63 1027.81 1027.98 1028.15 1028.30 1028.41 1028.48 1028.50 1028.46 1028.36 1028.23 1028.06 1027.87 1027.67 1027.46 1027.26 1027.05 1026.84 1026.62 1026.37 1026.10 1025.80 1025.46 1025.09 1024.71 1024.31 1023.92 1023.52 1023.14 1022.76 1022.39 1022.03 1021.67 1021.31 1020.94 1020.59 1020.24 1019.90
1027.10 1027.25 1027.42 1027.59 1027.77 1027.96 1028.15 1028.34 1028.51 1028.64 1028.74 1028.79 1028.78 1028.72 1028.60 1028.44 1028.25 1028.04 1027.82 1027.60 1027.38 1027.16 1026.94 1026.72 1026.48 1026.22 1025.94 1025.64 1025.30 1024.95 1024.59 1024.21 1023.83 1023.43 1023.04 1022.63 1022.22 1021.81 1021.40 1020.99 1020.59 1020.21 1019.86
1027.25 1027.40 1027.56 1027.74 1027.93 1028.13 1028.33 1028.52 1028.68 1028.82 1028.91 1028.95 1028.93 1028.86 1028.73 1028.57 1028.38 1028.17 1027.95 1027.72 1027.50 1027.28 1027.06 1026.84 1026.61 1026.37 1026.11 1025.83 1025.54 1025.22 1024.89 1024.53 1024.16 1023.76 1023.35 1022.91 1022.46 1021.99 1021.51 1021.05 1020.60 1020.18 1019.80
1027.26 1027.40 1027.55 1027.72 1027.91 1028.11 1028.30 1028.48 1028.64 1028.77 1028.86 1028.89 1028.88 1028.82 1028.71 1028.57 1028.40 1028.20 1028.00 1027.79 1027.58 1027.37 1027.16 1026.95 1026.73 1026.51 1026.28 1026.03 1025.77 1025.49 1025.18 1024.85 1024.49 1024.10 1023.67 1023.20 1022.70 1022.18 1021.65 1021.12 1020.62 1020.14 1019.72
1027.16 1027.28 1027.41 1027.57 1027.74 1027.92 1028.10 1028.27 1028.41 1028.53 1028.61 1028.65 1028.64 1028.60 1028.52 1028.41 1028.27 1028.12 1027.96 1027.78 1027.60 1027.41 1027.22 1027.03 1026.83 1026.63 1026.43 1026.21 1025.98 1025.73 1025.46 1025.15 1024.80 1024.41 1023.97 1023.48 1022.95 1022.39 1021.80 1021.22 1020.66 1020.13 1019.66
1026.97 1027.07 1027.19 1027.32 1027.47 1027.63 1027.79 1027.93 1028.05 1028.15 1028.22 1028.26 1028.26 1028.24 1028.19 1028.12 1028.04 1027.93 1027.81 1027.68 1027.55 1027.40 1027.24 1027.07 1026.90 1026.73 1026.55 1026.36 1026.16 1025.95 1025.70 1025.41 1025.08 1024.70 1024.25 1023.75 1023.19 1022.60 1021.98 1021.35 1020.74 1020.17 1019.66
1026.76 1026.84 1026.94 1027.06 1027.18 1027.31 1027.44 1027.56 1027.65 1027.72 1027.78 1027.81 1027.82 1027.82 1027.80 1027.77 1027.73 1027.68 1027.61 1027.53 1027.44 1027.34 1027.22 1027.09 1026.95 1026.81 1026.66 1026.50 1026.33 1026.13 1025.91 1025.64 1025.32 1024.94 1024.50 1023.99 1023.42 1022.80 1022.16 1021.51 1020.87 1020.27 1019.72
1026.55 1026.62 1026.71 1026.81 1026.92 1027.03 1027.13 1027.22 1027.29 1027.34 1027.37 1027.39 1027.41 1027.41 1027.42 1027.42 1027.42 1027.42 1027.40 1027.38 1027.33 1027.27 1027.20 1027.11 1027.00 1026.89 1026.76 1026.62 1026.47 1026.29 1026.08 1025.82 1025.51 1025.13 1024.69 1024.17 1023.60 1022.98 1022.33 1021.68 1021.03 1020.42 1019.86
1026.37 1026.44 1026.52 1026.62 1026.72 1026.82 1026.90 1026.96 1027.01 1027.04 1027.06 1027.07 1027.08 1027.10 1027.12 1027.15 1027.18 1027.22 1027.24 1027.26 1027.26 1027.24 1027.21 1027.15 1027.07 1026.98 1026.88 1026.75 1026.60 1026.43 1026.21 1025.95 1025.64 1025.25 1024.80 1024.29 1023.72 1023.10 1022.46 1021.82 1021.19 1020.59 1020.04
1026.20 1026.28 1026.37 1026.47 1026.57 1026.67 1026.74 1026.80 1026.84 1026.86 1026.87 1026.88 1026.89 1026.91 1026.94 1026.99 1027.04 1027.10 1027.16 1027.21 1027.25 1027.27 1027.26 1027.23 1027.17 1027.10 1027.00 1026.87 1026.72 1026.54 1026.31 1026.03 1025.69 1025.29 1024.83 1024.31 1023.74 1023.13 1022.51 1021.89 1021.29 1020.73 1020.21
1026.04 1026.12 1026.22 1026.33 1026.45 1026.55 1026.63 1026.70 1026.74 1026.76 1026.78 1026.79 1026.80 1026.83 1026.87 1026.93 1027.00 1027.08 1027.16 1027.24 1027.30 1027.33 1027.35 1027.34 1027.30 1027.22 1027.12 1026.99 1026.82 1026.60 1026.34 1026.03 1025.66 1025.24 1024.76 1024.22 1023.65 1023.06 1022.46 1021.88 1021.32 1020.80 1020.32
1025.85 1025.94 1026.06 1026.18 1026.31 1026.43 1026.53 1026.61 1026.67 1026.71 1026.73 1026.75 1026.78 1026.81 1026.86 1026.93 1027.01 1027.11 1027.20 1027.29 1027.36 1027.42 1027.44 1027.44 1027.40 1027.33 1027.22 1027.07 1026.87 1026.63 1026.33 1025.98 1025.57 1025.11 1024.60 1024.05 1023.48 1022.90 1022.32 1021.77 1021.25 1020.79 1020.37
1025.64 1025.74 1025.86 1026.00 1026.14 1026.28 1026.40 1026.50 1026.58 1026.64 1026.69 1026.72 1026.76 1026.81 1026.87 1026.94 1027.03 1027.12 1027.22 1027.32 1027.40 1027.47 1027.50 1027.51 1027.47 1027.40 1027.27 1027.10 1026.88 1026.60 1026.27 1025.88 1025.44 1024.95 1024.41 1023.85 1023.27 1022.70 1022.15 1021.63 1021.15 1020.73 1020.36
1025.41 1025.51 1025.63 1025.78 1025.93 1026.08 1026.23 1026.35 1026.45 1026.53 1026.59 1026.65 1026.70 1026.75 1026.82 1026.89 1026.98 1027.08 1027.18 1027.28 1027.37 1027.44 1027.48 1027.49 1027.46 1027.39 1027.26 1027.08 1026.85 1026.55 1026.20 1025.79 1025.32 1024.80 1024.25 1023.68 1023.11 1022.54 1022.01 1021.51 1021.08 1020.69 1020.37
Thickness
5601 5600 5598 5595 5593 5591 5589 5587 5585 5584 5583 5581 5580 5578 5577 5575 5574 5573 5570 5568 5566 5563 5561 5559 5556 5553 5551 5548 5546 5543 5540 5537 5534 5530 5528 5527 5526 5524 5523 5521 5519 5517 5516
5587 5586 5584 5581 5580 5578 5575 5573 5572 5571 5569 5568 5566 5564 5562 5561 5560 5558 5557 5555 5553 5550 5548 5546 5543 5541 5537 5534 5532 5529 5526 5522 5520 5518 5517 5515 5514 5513 5511 5510 5509 5507 5505
5574 5572 5570 5568 5566 5564 5563 5561 5560 5558 5556 5555 5553 5551 5549 5548 5546 5545 5544 5542 5540 5538 5536 5534 5531 5529 5526 5523 5520 5516 5513 5511 5507 5505 5504 5502 5501 5501 5500 5500 5499 5497 5496
5560 5558 5556 5554 5552 5551 5550 5549 5547 5546 5544 5542 5541 5539 5537 5535 5534 5533 5531 5530 5528 5525 5524 5522 5520 5517 5515 5512 5509 5505 5503 5500 5497 5495 5493 5492 5491 5490 5488 5488 5489 5488 5486
5547 5544 5542 5541 5540 5540 5538 5537 5535 5534 5532 5531 5529 5527 5525 5523 5522 5520 5519 5518 5516 5515 5513 5511 5509 5507 5505 5502 5500 5496 5494 5491 5489 5487 5485 5483 5482 5481 5479 5477 5476 5476 5477
5534 5532 5531 5530 5529 5527 5526 5525 5524 5521 5520 5519 5517 5515 5513 5511 5510 5510 5509 5507 5505 5504 5502 5501 5499 5497 5494 5492 5490 5488 5486 5484 5481 5479 5477 5476 5474 5472 5470 5468 5467 5467 5469
5523 5521 5520 5519 5517 5516 5516 5514 5512 5510 5508 5507 5505 5503 5501 5500 5500 5500 5499 5497 5495 5494 5492 5490 5490 5488 5486 5484 5482 5481 5479 5477 5475 5472 5470 5469 5468 5467 5464 5463 5462 5460 5460
5512 5511 5510 5509 5507 5506 5505 5503 5501 5499 5498 5496 5495 5493 5492 5491 5491 5490 5489 5488 5486 5485 5483 5482 5481 5480 5478 5476 5475 5475 5474 5472 5470 5468 5466 5465 5463 5461 5458 5457 5456 5454 5455
5503 5502 5501 5500 5498 5497 5495 5494 5492 5490 5489 5487 5487 5485 5483 5482 5482 5481 5481 5479 5477 5476 5475 5474 5473 5472 5472 5470 5469 5468 5468 5468 5466 5464 5463 5462 5461 5459 5457 5454 5453 5453 5454
5495 5494 5493 5492 5490 5488 5487 5486 5484 5483 5481 5480 5478 5476 5475 5474 5474 5473 5472 5471 5469 5469 5468 5468 5467 5466 5466 5464 5463 5462 5462 5462 5461 5461 5461 5460 5459 5458 5456 5453 5451 5450 5450
5488 5487 5485 5484 5483 5481 5479 5478 5477 5475 5473 5471 5470 5468 5467 5466 5466 5465 5464 5463 5462 5462 5462 5462 5461 5461 5461 5460 5459 5457 5456 5456 5455 5455 5456 5457 5457 5456 5454 5452 5449 5447 5447
5481 5480 5478 5477 5476 5474 5472 5470 5468 5466 5464 5463 5462 5461 5459 5459 5459 5458 5458 5457 5456 5455 5455 5455 5456 5456 5456 5456 5455 5454 5453 5453 5452 5453 5453 5452 5452 5452 5451 5451 5450 5448 5446
5474 5472 5471 5470 5468 5466 5464 5462 5460 5458 5457 5456 5455 5454 5453 5452 5452 5452 5452 5452 5452 5451 5451 5451 5451 5452 5452 5452 5451 5450 5450 5449 5448 5448 5447 5447 5446 5447 5448 5449 5450 5449 5448
5468 5466 5464 5462 5460 5458 5457 5456 5454 5452 5451 5449 5448 5447 5446 5446 5447 5447 5448 5448 5448 5448 5448 5448 5448 5448 5448 5447 5446 5446 5445 5444 5443 5442 5442 5443 5444 5446 5447 5446 5447 5446 5447
5462 5460 5458 5456 5454 5452 5451 5449 5448 5446 5445 5444 5443 5442 5442 5443 5443 5443 5444 5445 5444 5444 5444 5445 5444 5443 5443 5442 5442 5441 5441 5440 5440 5439 5439 5441 5442 5444 5444 5444 5443 5444 5444
5458 5456 5454 5452 5450 5448 5446 5444 5443 5443 5442 5441 5440 5439 5439 5439 5440 5441 5442 5442 5442 5442 5441 5440 5438 5437 5437 5436 5436 5436 5436 5435 5435 5435 5436 5437 5438 5440 5441 5442 5442 5443 5443
5456 5454 5451 5450 5448 5445 5443 5442 5441 5440 5440 5439 5438 5438 5438 5438 5439 5439 5439 5439 5439 5439 5437 5435 5434 5433 5432 5431 5430 5430 5431 5430 5430 5432 5433 5434 5435 5437 5439 5440 5441 5442 5443
5455 5453 5451 5449 5447 5444 5442 5441 5439 5438 5438 5437 5437 5437 5437 5437 5437 5437 5437 5437 5436 5434 5433 5431 5430 5429 5428 5427 5427 5427 5427 5428 5429 5429 5430 5432 5433 5435 5437 5439 5440 5441 5442
5455 5453 5450 5448 5446 5444 5442 5440 5439 5437 5436 5436 5436 5436 5436 5436 5436 5435 5435 5434 5433 5431 5430 5428 5427 5426 5425 5424 5424 5423 5424 5425 5426 5427 5428 5430 5431 5433 5436 5438 5440 5441 5442
5455 5454 5451 5448 5446 5444 5442 5441 5439 5438 5437 5436 5436 5435 5435 5435 5434 5433 5432 5431 5430 5429 5427 5426 5424 5423 5422 5422 5422 5422 5423 5424 5425 5426 5427 5429 5430 5433 5435 5438 5441 5443 5444
5457 5455 5453 5450 5448 5446 5444 5443 5441 5440 5439 5438 5437 5436 5435 5434 5433 5432 5431 5430 5429 5427 5426 5424 5423 5422 5421 5421 5421 5421 5422 5423 5424 5425 5426 5428 5431 5434 5436 5439 5442 5444 5446
5459 5457 5455 5453 5451 5449 5447 5445 5443 5442 5441 5440 5438 5437 5436 5435 5434 5433 5432 5430 5428 5426 5425 5423 5422 5421 5420 5420 5420 5421 5422 5423 5424 5425 5427 5429 5432 5435 5438 5442 5445 5447 5448
5462 5460 5458 5456 5454 5452 5450 5448 5446 5445 5443 5442 5441 5440 5438 5437 5436 5434 5433 5431 5429 5427 5425 5424 5423 5422 5421 5421 5420 5421 5422 5423 5424 5425 5427 5431 5434 5437 5440 5443 5446 5449 5450
5465 5464 5461 5459 5457 5455 5453 5452 5450 5448 5446 5445 5443 5442 5441 5439 5437 5436 5434 5432 5430 5428 5427 5425 5424 5423 5422 5422 5423 5423 5424 5425 5427 5429 5431 5433 5436 5439 5443 5446 5448 5451 5452
5470 5468 5466 5463 5461 5459 5457 5455 5453 5452 5450 5448 5446 5445 5443 5441 5440 5438 5436 5434 5432 5431 5429 5427 5426 5425 5425 5425 5425 5426 5428 5430 5432 5434 5436 5437 5440 5443 5446 5449 5451 5452 5454
5475 5473 5470 5468 5465 5463 5461 5460 5458 5456 5454 5452 5450 5448 5446 5445 5443 5441 5439 5437 5435 5434 5432 5430 5429 5428 5428 5428 5429 5430 5432 5435 5437 5439 5440 5442 5445 5447 5450 5452 5453 5454 5455